FW7233 Weather Reports


time (UTC)temp
F
wind
direction
speed
knots
gust
knots
rain 1hr
in
rain 24hr
in
rain mn
in
humidity
%
barometer
mb
20260504050543 58 189 0.9 7.8 0.00 0.00 0.00 55 1014.1
20260504045533 59 159 2.6 5.2 0.00 0.00 0.00 54 1013.9
20260504044531 58 145 0.0 5.2 0.00 0.00 0.00 57 1014.1
20260504043530 57 123 0.0 5.2 0.00 0.00 0.00 58 1014.2
20260504042531 56 140 0.9 2.6 0.00 0.00 0.00 60 1014.1
20260504041531 55 164 1.7 2.6 0.00 0.00 0.00 59 1013.9
20260504040531 55 125 0.0 2.6 0.00 0.00 0.00 60 1014.0
20260504035531 55 136 0.9 3.5 0.00 0.00 0.00 60 1013.6
20260504033532 54 132 0.0 2.6 0.00 0.00 0.00 60 1014.0
20260504032531 54 131 0.0 2.6 0.00 0.00 0.00 60 1013.9
20260504031533 54 140 0.9 5.2 0.00 0.00 0.00 59 1013.8
20260504030530 54 132 0.0 3.5 0.00 0.00 0.00 60 1013.9
20260504024533 55 162 0.9 3.5 0.00 0.00 0.00 58 1013.8
20260504023531 55 138 0.9 3.5 0.00 0.00 0.00 57 1013.9
20260504022532 56 143 0.9 3.5 0.00 0.00 0.00 56 1013.8
20260504021533 56 143 0.9 5.2 0.00 0.00 0.00 55 1013.9
20260504020533 56 153 0.0 3.5 0.00 0.00 0.00 56 1013.9
20260504015531 56 147 0.9 5.2 0.00 0.00 0.00 56 1013.8
20260504014532 56 141 0.9 2.6 0.00 0.00 0.00 56 1014.0
20260504013533 56 146 0.0 5.2 0.00 0.00 0.00 55 1014.0
20260504012531 57 167 1.7 5.2 0.00 0.00 0.00 54 1013.7
20260504004531 58 128 0.9 6.1 0.00 0.00 0.00 55 1014.1
20260504003531 58 153 1.7 3.5 0.00 0.00 0.00 54 1014.0
20260504002531 58 107 2.6 3.5 0.00 0.00 0.00 54 1014.1
20260504000530 59 156 1.7 3.5 0.00 0.00 0.00 55 1014.0
20260503235531 59 137 0.0 3.5 0.00 0.00 0.00 56 1014.5
20260503234532 60 149 1.7 5.2 0.00 0.00 0.00 54 1014.5
20260503233531 60 127 0.0 5.2 0.00 0.00 0.00 55 1014.3
20260503232531 60 169 0.0 5.2 0.00 0.00 0.00 55 1014.6
20260503231530 59 143 1.7 5.2 0.00 0.00 0.00 57 1014.7
20260503225532 60 136 0.0 2.6 0.00 0.00 0.00 56 1014.4
20260503223531 60 116 1.7 3.5 0.00 0.00 0.00 55 1014.6
20260503222531 60 149 1.7 2.6 0.00 0.00 0.00 55 1014.4
20260503221532 60 129 0.0 1.7 0.00 0.00 0.00 55 1014.3
20260503220531 61 167 3.5 5.2 0.00 0.00 0.00 53 1014.5
20260503215534 60 163 0.0 2.6 0.00 0.00 0.00 55 1014.5
20260503214530 59 133 0.9 1.7 0.00 0.00 0.00 58 1014.4
20260503213533 59 155 1.7 1.7 0.00 0.00 0.00 58 1014.5
20260503212531 58 127 0.0 1.7 0.00 0.00 0.00 59 1014.6
20260503210533 61 124 1.7 2.6 0.00 0.00 0.00 52 1014.7
20260503205533 63 166 0.9 2.6 0.00 0.00 0.00 50 1014.8
20260503204532 63 172 0.9 1.7 0.00 0.00 0.00 49 1014.8
20260503203531 64 142 0.9 2.6 0.00 0.00 0.00 49 1014.6
20260503202531 63 122 0.9 2.6 0.00 0.00 0.00 50 1014.5
20260503201533 64 147 0.9 3.5 0.00 0.00 0.00 51 1014.8
20260503200531 63 131 0.0 2.6 0.00 0.00 0.00 51 1014.7
20260503194532 57 142 0.9 2.6 0.00 0.00 0.00 59 1014.6
20260503193530 57 126 0.0 1.7 0.00 0.00 0.00 63 1014.8
20260503192531 57 139 0.0 2.6 0.00 0.00 0.00 66 1014.7
20260503190531 61 136 0.0 1.7 0.00 0.00 0.00 57 1014.8
20260503184531 60 136 0.0 1.7 0.00 0.00 0.00 59 1014.6
20260503181530 68 128 1.7 2.6 0.00 0.00 0.00 44 1014.3
20260503180531 70 129 0.9 2.6 0.00 0.00 0.00 40 1014.3
20260503175531 71 139 0.0 3.5 0.00 0.00 0.00 39 1013.8
20260503174531 71 154 0.9 2.6 0.00 0.00 0.00 38 1014.0
20260503173531 72 143 0.9 3.5 0.00 0.00 0.00 38 1014.1
20260503172533 72 141 0.0 3.5 0.00 0.00 0.00 37 1014.0
20260503171530 74 175 1.7 2.6 0.00 0.00 0.00 38 1013.9
20260503150531 79 168 1.7 7.8 0.00 0.00 0.00 29 1014.5
20260503110531 77 172 3.5 11.3 0.00 0.00 0.00 35 1017.0
20260503080530 69 136 3.5 11.3 0.00 0.00 0.00 48 1018.2
20260503072532 67 183 1.7 6.1 0.00 0.00 0.00 54 1018.4
20260503071530 66 160 4.3 7.0 0.00 0.00 0.00 50 1018.4
20260503070531 66 143 4.3 6.1 0.00 0.00 0.00 49 1018.2
20260503054531 60 162 1.7 5.2 0.00 0.00 0.00 61 1018.2
20260503053532 58 149 2.6 7.0 0.00 0.00 0.00 63 1018.1
20260503051532 56 146 1.7 5.2 0.00 0.00 0.00 66 1018.6